DW4332 Weather Reports


time (UTC)temp
F
wind
direction
speed
knots
gust
knots
rain 1hr
in
rain 24hr
in
rain mn
in
humidity
%
barometer
mb
20260506211529 70 162 0.0 0.0 0.00 0.00 0.00 53 1005.7
20260506210023 69 190 0.9 0.0 0.00 0.00 0.00 52 1005.6
20260506204518 68 224 0.9 0.0 0.00 0.00 0.00 44 1005.6
20260506203020 68 171 0.0 0.0 0.00 0.00 0.00 40 1005.6
20260506201510 68 188 1.7 0.0 0.00 0.00 0.00 43 1005.8
20260506200005 68 171 1.7 0.0 0.00 0.00 0.00 43 1005.9
20260506194501 67 219 2.6 0.0 0.00 0.00 0.00 42 1006.1
20260506193059 67 197 1.7 0.0 0.00 0.00 0.00 41 1006.3
20260506191605 66 171 2.6 0.0 0.00 0.00 0.00 36 1006.3
20260506190048 66 227 5.2 0.0 0.00 0.00 0.00 37 1006.5
20260506184546 67 207 3.5 0.0 0.00 0.00 0.00 42 1006.5
20260506183039 69 194 3.5 0.0 0.00 0.00 0.00 55 1006.5
20260506181535 70 217 2.6 0.0 0.00 0.00 0.00 61 1006.8
20260506180030 70 148 0.9 0.0 0.00 0.00 0.00 60 1006.6
20260506174526 70 217 0.9 0.0 0.00 0.00 0.00 60 1006.8
20260506173022 70 162 1.7 0.0 0.00 0.00 0.00 58 1006.9
20260506171521 71 184 0.9 0.0 0.00 0.00 0.00 59 1007.1
20260506170012 71 195 0.9 0.0 0.00 0.00 0.00 63 1007.3
20260506164509 72 114 0.9 0.0 0.00 0.00 0.00 63 1007.8
20260506163008 72 221 0.9 0.0 0.00 0.00 0.00 62 1008.3
20260506161600 73 167 2.6 0.0 0.00 0.00 0.00 61 1008.5
20260506160056 73 225 2.6 0.0 0.00 0.00 0.00 59 1008.3
20260506154552 74 165 2.6 0.0 0.00 0.00 0.00 56 1008.3
20260506153046 74 204 1.7 0.0 0.00 0.00 0.00 58 1008.2
20260506151546 72 222 1.7 0.0 0.00 0.00 0.00 60 1008.3
20260506150038 73 235 4.3 0.0 0.00 0.00 0.00 57 1008.6
20260506144549 74 129 3.5 0.0 0.00 0.00 0.00 57 1008.5
20260506143031 73 248 2.6 0.0 0.00 0.00 0.00 58 1008.5
20260506141532 72 220 4.3 0.0 0.00 0.00 0.00 59 1008.4
20260506140022 73 180 5.2 0.0 0.00 0.00 0.00 60 1008.4
20260506134516 73 198 2.6 0.0 0.00 0.00 0.00 61 1008.6
20260506133016 72 148 4.3 0.0 0.00 0.00 0.00 62 1008.8
20260506131508 72 209 3.5 0.0 0.00 0.00 0.00 62 1009.2
20260506130003 71 221 2.6 0.0 0.00 0.00 0.00 61 1009.0
20260506124559 68 126 2.6 0.0 0.00 0.00 0.00 57 1009.1
20260506123055 66 157 1.7 0.0 0.00 0.00 0.00 54 1009.1
20260506121550 66 237 1.7 0.0 0.00 0.00 0.00 45 1009.2
20260506120046 65 131 1.7 0.0 0.00 0.00 0.00 43 1009.1
20260506114541 64 215 1.7 0.0 0.00 0.00 0.00 29 1009.2
20260506113038 61 201 1.7 0.0 0.00 0.00 0.00 5 1009.4
20260506111533 60 140 1.7 0.0 0.00 0.00 0.00 100 1009.4
20260506110029 58 149 0.9 0.0 0.00 0.00 0.00 100 1009.4
20260506104527 58 189 1.7 0.0 0.00 0.00 0.00 100 1009.2
20260506103023 57 188 1.7 0.0 0.00 0.00 0.00 100 1009.3
20260506101516 57 175 0.0 0.0 0.00 0.00 0.00 100 1009.1
20260506100012 58 123 0.9 0.0 0.00 0.00 0.00 100 1009.0
20260506094506 58 187 0.9 0.0 0.00 0.00 0.00 100 1009.1
20260506093002 58 187 0.9 0.0 0.00 0.00 0.00 100 1009.1
20260506091559 58 248 1.7 0.0 0.00 0.00 0.00 100 1009.1
20260506090053 58 144 1.7 0.0 0.00 0.00 0.00 100 1009.3
20260506084555 59 231 0.9 0.0 0.00 0.00 0.00 100 1009.3
20260506083051 59 196 0.9 0.0 0.00 0.00 0.00 100 1009.4
20260506081541 60 181 0.9 0.0 0.00 0.00 0.00 100 1009.6
20260506073031 61 213 1.7 0.0 0.00 0.00 0.00 15 1009.6
20260506071529 62 199 0.9 0.0 0.00 0.00 0.00 21 1009.6
20260506061526 63 211 0.9 0.0 0.00 0.00 0.00 31 1009.5
20260506044511 63 173 0.9 0.0 0.00 0.00 0.00 48 1010.1
20260506043008 64 169 1.7 0.0 0.00 0.00 0.00 51 1010.1
20260506041505 64 184 0.9 0.0 0.00 0.00 0.00 55 1010.0
20260506040006 65 178 0.9 0.0 0.00 0.00 0.00 57 1009.9
20260506034604 65 158 1.7 0.0 0.00 0.00 0.00 58 1010.0
20260506033109 65 171 1.7 0.0 0.00 0.00 0.00 59 1010.1
20260506031552 65 204 0.9 0.0 0.00 0.00 0.00 60 1010.0
20260506030057 65 170 1.7 0.0 0.00 0.00 0.00 61 1010.1
20260506024544 66 197 0.9 0.0 0.00 0.00 0.00 61 1010.1
20260506023037 66 206 2.6 0.0 0.00 0.00 0.00 62 1010.2
20260506021539 66 204 1.7 0.0 0.00 0.00 0.00 62 1010.3
20260506020028 66 142 2.6 0.0 0.00 0.00 0.00 63 1010.3
20260506014524 67 143 1.7 0.0 0.00 0.00 0.00 64 1010.1
20260506013019 67 202 1.7 0.0 0.00 0.00 0.00 64 1010.1
20260506011535 67 189 1.7 0.0 0.00 0.00 0.00 63 1010.0
20260506010011 68 171 2.6 0.0 0.00 0.00 0.00 63 1009.6
20260506004520 68 200 2.6 0.0 0.00 0.00 0.00 62 1009.6
20260506003002 68 225 1.7 0.0 0.00 0.00 0.00 61 1009.5
20260506001601 69 188 0.9 0.0 0.00 0.00 0.00 61 1009.4
20260506000059 70 185 2.6 0.0 0.00 0.00 0.00 59 1009.2
20260505234549 70 170 3.5 0.0 0.00 0.00 0.00 58 1009.1
20260505233045 71 223 3.5 0.0 0.00 0.00 0.00 56 1009.0
20260505231543 73 136 2.6 0.0 0.00 0.00 0.00 54 1008.6
20260505230036 73 148 1.7 0.0 0.00 0.00 0.00 53 1008.5
20260505224532 74 173 2.6 0.0 0.00 0.00 0.00 52 1008.4
20260505223027 75 220 2.6 0.0 0.00 0.00 0.00 51 1008.3
20260505221523 76 157 2.6 0.0 0.00 0.00 0.00 48 1008.1
20260505220041 78 146 2.6 0.0 0.00 0.00 0.00 47 1007.9
20260505214525 78 194 2.6 0.0 0.00 0.00 0.00 47 1007.7
20260505213018 79 134 2.6 0.0 0.00 0.00 0.00 45 1007.7